[[{"header":{"parameterUnit":"m.s-1","parameterCategory":1,"la1":30.2991,"la2":30.254,"lo1":-89.0895,"lo2":-89.0444,"dy":0.0017,"dx":0.0017,"nx":28,"ny":28,"refTime":"2025-07-11T03:00:00:Z","depth":0,"parameterNumber":2,"parameterNumberName":"U-component_of_WINDS"},"data":[0,0,0,0,0,0,0,0,0,0,0,0,0,0,0,0,0,0,0,0,0,0,0,0,0,0,0,0,0,0,0,0,0,0,0,0,0,0,0,0,0,0,0,0,0,0,0,0,0,0,0,0,0,0,0,0,0,0,1.2612,1.2613,0,1.2685,1.2686,1.2686,1.2729,1.2729,1.273,1.273,1.2803,1.2805,1.2806,0,0,0,0,0,0,0,0,0,0,0,0,0,1.251,1.2512,1.2612,1.2613,1.2614,1.2685,1.2686,1.2687,1.2729,1.2729,1.273,1.273,1.2802,1.2804,1.2807,0,0,0,0,0,0,0,0,0,0,0,0,0,1.2566,1.2512,1.2612,1.2644,1.2647,1.2684,1.2686,1.2687,1.2729,1.2729,1.273,1.273,1.2802,1.2804,1.2807,1.2818,0,0,1.2815,1.2816,0,0,0,0,0,0,0,0,1.2563,1.2569,1.2638,1.2642,1.2646,1.2698,1.2677,1.2731,1.2729,1.2698,1.273,1.273,1.2768,1.2773,1.2786,1.2821,1.2824,1.2815,1.2817,1.2818,1.2819,0,0,0,0,0,0,0,1.2559,1.2567,1.2641,1.2639,1.2644,1.2654,1.2662,1.2687,1.273,1.2701,1.2704,1.2712,1.277,1.2784,1.2788,1.2825,1.2815,1.2817,1.2819,1.282,1.2874,1.2874,0,0,0,0,0,0,1.255,1.2563,1.2639,1.2643,1.2604,1.2656,1.2665,1.2681,1.273,1.2738,1.2712,1.2714,1.2779,1.2785,1.2791,1.2808,1.2818,1.282,1.2822,1.2874,1.2874,1.2874,0,0,0,0,0,0,1.2547,1.2556,1.2636,1.2604,1.2615,1.2657,1.2675,1.2682,1.2696,1.2739,1.2746,1.2718,1.2779,1.2787,1.2811,1.2811,1.2822,1.2824,1.2874,1.2874,1.2874,1.284,0,0,0,0,0,0,1.2544,1.2555,1.2559,1.2604,1.2616,1.2654,1.2675,1.2684,1.2701,1.2704,1.2746,1.2754,1.278,1.2807,1.2814,1.2815,1.2826,1.2875,1.2874,1.2874,1.2842,1.2839,1.2837,0,0,0,0,0,1.2541,1.2547,1.2559,1.2568,1.2623,1.2654,1.2661,1.2692,1.27,1.2705,1.2733,1.2752,1.281,1.2809,1.2817,1.2819,1.2875,1.2874,1.2874,1.2843,1.2839,1.2837,0,0,0,0,0,0,1.25,1.2553,1.2568,1.2588,1.2617,1.2661,1.2668,1.2688,1.2714,1.2716,1.2752,1.2762,1.2782,1.2803,1.2801,1.2832,1.2844,1.2846,1.2818,1.2815,1.2813,1.2807,1.2828,0,0,0,0,0,1.2494,1.2515,1.256,1.2574,1.2587,1.2625,1.264,1.2662,1.2692,1.2704,1.2733,1.2762,1.2787,1.2802,1.2827,1.2845,1.2855,1.285,1.2848,1.2845,1.2846,1.2858,1.2856,1.2872,1.2873,1.2873,0,0,1.2481,1.2512,1.2523,1.2567,1.2591,1.2612,1.2635,1.2656,1.2672,1.2707,1.2732,1.2754,1.2789,1.281,1.2821,1.2828,1.2844,1.2845,1.2843,1.2845,1.2857,1.2856,1.2854,1.2872,1.2872,1.2872,0,0,1.2468,1.2493,1.2508,1.2533,1.257,1.2595,1.2599,1.2641,1.2658,1.2683,1.271,1.273,1.2771,1.2795,1.2812,1.281,1.2829,1.2817,1.2804,1.2815,1.2814,1.2813,1.2812,1.2812,1.2817,1.2817,1.2817,0,1.2447,1.248,1.2513,1.2534,1.2552,1.2586,1.2601,1.2623,1.2666,1.2678,1.2685,1.2739,1.2765,1.2792,1.2792,1.2805,1.281,1.2812,1.2811,1.2811,1.281,1.281,1.281,1.2816,1.2816,1.2816,1.2816,0,1.2452,1.2475,1.2483,1.2524,1.2544,1.2561,1.2597,1.2613,1.2633,1.2658,1.2684,1.2716,1.2748,1.2757,1.2776,1.2787,1.2791,1.2804,1.2817,1.2806,1.2807,1.2807,1.2813,1.2814,1.2814,1.2815,0,0,1.2415,1.2476,1.2478,1.2498,1.2542,1.256,1.2579,1.2612,1.2625,1.2654,1.2671,1.2706,1.2719,1.2739,1.2762,1.2771,1.2768,1.2784,1.2786,1.278,1.2783,1.2773,1.2772,1.2781,1.2781,1.2782,1.2781,0,1.2408,1.2445,1.2477,1.2502,1.2524,1.2556,1.2574,1.2602,1.2626,1.2648,1.2675,1.2699,1.2715,1.2727,1.2738,1.2766,1.2769,1.2767,1.2798,1.2799,1.2788,1.2773,1.2761,1.2759,1.2781,1.2781,1.2781,0,1.2405,1.2434,1.2461,1.2504,1.2515,1.2529,1.2562,1.2583,1.2616,1.2633,1.2656,1.268,1.2702,1.2713,1.2745,1.2742,1.2757,1.2773,1.2774,1.2778,1.2789,1.2776,1.2759,1.2758,1.2782,1.2782,1.2782,0,1.2376,1.2421,1.2444,1.2459,1.251,1.252,1.2541,1.2575,1.2593,1.2622,1.2634,1.2664,1.2681,1.2704,1.2736,1.2741,1.2765,1.2778,1.2779,1.2778,1.2782,1.2782,1.2767,1.2792,1.2792,1.2792,1.2792,0,1.2365,1.2381,1.2431,1.2445,1.2464,1.25,1.2518,1.2542,1.2572,1.2591,1.2622,1.2639,1.268,1.2702,1.2727,1.275,1.2757,1.2772,1.2778,1.2769,1.2767,1.2779,1.278,1.2792,1.2792,1.2792,1.2792,0,1.2335,1.2369,1.2396,1.2442,1.2454,1.2466,1.2506,1.252,1.2547,1.2571,1.2578,1.2619,1.2647,1.2682,1.272,1.2737,1.2758,1.2767,1.2746,1.275,1.275,1.2749,1.2742,1.2743,1.2767,1.2766,1.2766,0,1.2326,1.2339,1.2387,1.2402,1.2423,1.2447,1.2466,1.2502,1.2521,1.2561,1.2571,1.2601,1.2628,1.2671,1.2704,1.2735,1.2745,1.2741,1.275,1.2741,1.2746,1.2744,1.2746,1.2738,1.2738,1.2737,1.2737,0,1.2306,1.2323,1.2349,1.2381,1.2403,1.243,1.2458,1.2469,1.2512,1.2531,1.256,1.2581,1.2621,1.2651,1.2686,1.2708,1.273,1.2734,1.2736,1.2727,1.2714,1.2721,1.274,1.2734,1.2734,1.2734,1.2734,1.2735,1.2286,1.23,1.2336,1.2364,1.239,1.2416,1.2432,1.2461,1.2486,1.2523,1.2543,1.2572,1.2606,1.2655,1.2677,1.27,1.2708,1.271,1.2711,1.2711,1.2709,1.271,1.2706,1.2707,1.2707,1.2707,1.2707,0,1.2268,1.2294,1.2319,1.2359,1.2381,1.24,1.2433,1.245,1.2476,1.2506,1.2532,1.2566,1.2596,1.2632,1.2664,1.2676,1.2687,1.2683,1.2683,1.2688,1.27,1.2695,1.2674,1.2674,1.2674,1.2674,1.2674,1.2674,1.2262,1.2286,1.2307,1.2344,1.2369,1.2399,1.2416,1.244,1.2465,1.2502,1.2527,1.2551,1.2584,1.2619,1.2647,1.2657,1.2667,1.2661,1.2673,1.2684,1.2687,1.2689,1.2685,1.2663,1.2663,1.266,1.266,1.266]},{"header":{"parameterUnit":"m.s-1","parameterCategory":1,"la1":30.2991,"la2":30.254,"lo1":-89.0895,"lo2":-89.0444,"dy":0.0017,"dx":0.0017,"nx":28,"ny":28,"refTime":"2025-07-11T03:00:00:Z","depth":0,"parameterNumber":3,"parameterNumberName":"V-component_of_WINDS"},"data":[0,0,0,0,0,0,0,0,0,0,0,0,0,0,0,0,0,0,0,0,0,0,0,0,0,0,0,0,0,0,0,0,0,0,0,0,0,0,0,0,0,0,0,0,0,0,0,0,0,0,0,0,0,0,0,0,0,0,-0.5827,-0.5828,0,-0.5946,-0.5947,-0.5949,-0.598,-0.5979,-0.5979,-0.5978,-0.6102,-0.6105,-0.6109,0,0,0,0,0,0,0,0,0,0,0,0,0,-0.5629,-0.5632,-0.5827,-0.5828,-0.583,-0.5946,-0.5947,-0.5949,-0.598,-0.5979,-0.5978,-0.5978,-0.61,-0.6105,-0.611,0,0,0,0,0,0,0,0,0,0,0,0,0,-0.5728,-0.5634,-0.5827,-0.5859,-0.5863,-0.5945,-0.5947,-0.5949,-0.598,-0.5979,-0.5978,-0.5977,-0.6099,-0.6105,-0.611,-0.6169,0,0,-0.6129,-0.6131,0,0,0,0,0,0,0,0,-0.5723,-0.5735,-0.5853,-0.5857,-0.5862,-0.5947,-0.5923,-0.6023,-0.5981,-0.5936,-0.5978,-0.5977,-0.6051,-0.6061,-0.6086,-0.6175,-0.618,-0.6129,-0.6133,-0.6135,-0.6137,0,0,0,0,0,0,0,-0.5716,-0.573,-0.5874,-0.5855,-0.586,-0.5869,-0.5882,-0.5942,-0.5998,-0.594,-0.5942,-0.5956,-0.6053,-0.608,-0.6089,-0.6182,-0.6129,-0.6134,-0.6138,-0.614,-0.6326,-0.6328,0,0,0,0,0,0,-0.5703,-0.5725,-0.587,-0.5878,-0.5788,-0.5873,-0.5888,-0.5921,-0.5998,-0.6008,-0.5957,-0.5957,-0.607,-0.6082,-0.6093,-0.6168,-0.6135,-0.6141,-0.6144,-0.6325,-0.6327,-0.6328,0,0,0,0,0,0,-0.5698,-0.5715,-0.5865,-0.5802,-0.5822,-0.5878,-0.5915,-0.5924,-0.595,-0.601,-0.6021,-0.5973,-0.607,-0.6085,-0.615,-0.6173,-0.6143,-0.6149,-0.6323,-0.6326,-0.6327,-0.6317,0,0,0,0,0,0,-0.5693,-0.5714,-0.5736,-0.5802,-0.5825,-0.5919,-0.5916,-0.5927,-0.596,-0.5962,-0.6029,-0.6039,-0.607,-0.6141,-0.6156,-0.6181,-0.6154,-0.6322,-0.6324,-0.6327,-0.6316,-0.6319,-0.6321,0,0,0,0,0,-0.5685,-0.5728,-0.5737,-0.5754,-0.5854,-0.5921,-0.5934,-0.5968,-0.5962,-0.5985,-0.6024,-0.6037,-0.6168,-0.6147,-0.6165,-0.6191,-0.632,-0.6324,-0.6327,-0.6315,-0.6318,-0.6321,0,0,0,0,0,0,-0.5663,-0.5737,-0.5748,-0.5813,-0.586,-0.5926,-0.5956,-0.5971,-0.6021,-0.602,-0.6062,-0.6077,-0.6139,-0.6172,-0.6148,-0.6253,-0.6244,-0.6251,-0.6229,-0.6233,-0.6236,-0.6227,-0.6158,0,0,0,0,0,-0.5666,-0.5714,-0.5776,-0.5828,-0.5851,-0.5899,-0.593,-0.5952,-0.6003,-0.6024,-0.6067,-0.6117,-0.6169,-0.6203,-0.6254,-0.632,-0.6336,-0.6347,-0.635,-0.6352,-0.6357,-0.6397,-0.6403,-0.6338,-0.6338,-0.6338,0,0,-0.5672,-0.5719,-0.5746,-0.5824,-0.5864,-0.5913,-0.5916,-0.5968,-0.6005,-0.6032,-0.6096,-0.613,-0.6188,-0.6254,-0.6285,-0.6283,-0.6379,-0.6356,-0.6357,-0.6362,-0.64,-0.6406,-0.6412,-0.634,-0.634,-0.634,0,0,-0.5709,-0.5748,-0.5796,-0.5836,-0.5895,-0.5927,-0.5939,-0.6002,-0.6026,-0.6091,-0.6112,-0.6158,-0.6247,-0.6288,-0.632,-0.6373,-0.6388,-0.6389,-0.6403,-0.6441,-0.6446,-0.6451,-0.6471,-0.6478,-0.6394,-0.6394,-0.6394,0,-0.571,-0.5784,-0.5819,-0.5871,-0.5905,-0.5931,-0.5981,-0.6017,-0.6091,-0.6114,-0.611,-0.6223,-0.6264,-0.6341,-0.6354,-0.6379,-0.6395,-0.6382,-0.6442,-0.6447,-0.6452,-0.6473,-0.648,-0.6394,-0.6394,-0.6394,-0.6394,0,-0.5783,-0.5834,-0.5866,-0.5936,-0.5974,-0.6024,-0.6068,-0.6102,-0.6122,-0.6154,-0.6221,-0.6271,-0.6334,-0.6354,-0.6373,-0.6434,-0.6431,-0.6434,-0.6427,-0.6458,-0.6478,-0.6485,-0.6394,-0.6394,-0.6394,-0.6394,0,0,-0.5809,-0.5898,-0.5909,-0.5942,-0.601,-0.6051,-0.6103,-0.6164,-0.6193,-0.6243,-0.6289,-0.6364,-0.6367,-0.6404,-0.6429,-0.6461,-0.6503,-0.6461,-0.6463,-0.6468,-0.6575,-0.6573,-0.6581,-0.6512,-0.6513,-0.6515,-0.657,0,-0.5855,-0.5948,-0.5982,-0.6059,-0.6108,-0.6134,-0.6179,-0.6226,-0.6258,-0.6305,-0.6341,-0.6394,-0.6394,-0.6417,-0.6451,-0.649,-0.6525,-0.6487,-0.6556,-0.6558,-0.6542,-0.6591,-0.6589,-0.6639,-0.6578,-0.6579,-0.658,0,-0.5922,-0.5973,-0.6054,-0.6117,-0.6139,-0.6179,-0.6239,-0.6283,-0.6337,-0.6358,-0.64,-0.6422,-0.6479,-0.6467,-0.6546,-0.652,-0.655,-0.6574,-0.6577,-0.6586,-0.6572,-0.6602,-0.6656,-0.6664,-0.6592,-0.6592,-0.6591,0,-0.5935,-0.6023,-0.6084,-0.6111,-0.6186,-0.6214,-0.6246,-0.6299,-0.6334,-0.6386,-0.641,-0.6468,-0.65,-0.6545,-0.6583,-0.657,-0.6659,-0.665,-0.668,-0.6679,-0.6698,-0.6697,-0.6758,-0.6715,-0.6715,-0.6715,-0.6715,0,-0.5984,-0.6033,-0.6091,-0.6129,-0.6185,-0.6224,-0.6279,-0.6313,-0.6361,-0.6406,-0.6432,-0.6474,-0.6521,-0.657,-0.66,-0.6662,-0.6676,-0.6696,-0.6703,-0.6694,-0.6692,-0.6715,-0.6713,-0.6717,-0.6717,-0.6716,-0.6716,0,-0.6008,-0.6049,-0.6117,-0.6182,-0.62,-0.6239,-0.6295,-0.6333,-0.6366,-0.6424,-0.6439,-0.6492,-0.6551,-0.6593,-0.6669,-0.6689,-0.6756,-0.6763,-0.6738,-0.6742,-0.6769,-0.6767,-0.6849,-0.6863,-0.681,-0.681,-0.681,0,-0.6037,-0.6076,-0.6145,-0.6177,-0.621,-0.6261,-0.6297,-0.6336,-0.6373,-0.6439,-0.6469,-0.653,-0.658,-0.6673,-0.6719,-0.6778,-0.6787,-0.6812,-0.6796,-0.6786,-0.6789,-0.6787,-0.6792,-0.6814,-0.6815,-0.6815,-0.6815,0,-0.6085,-0.6104,-0.6154,-0.6212,-0.6254,-0.6302,-0.635,-0.6375,-0.6423,-0.6463,-0.6523,-0.6563,-0.664,-0.6701,-0.6764,-0.6798,-0.6816,-0.682,-0.683,-0.6822,-0.6806,-0.6816,-0.6746,-0.6818,-0.6818,-0.6818,-0.6817,-0.6817,-0.6114,-0.615,-0.6205,-0.626,-0.6301,-0.6345,-0.6385,-0.6423,-0.6474,-0.654,-0.656,-0.6623,-0.6678,-0.6765,-0.68,-0.6851,-0.685,-0.6864,-0.6868,-0.6871,-0.6872,-0.6797,-0.6862,-0.6862,-0.6862,-0.6862,-0.6862,0,-0.6164,-0.6201,-0.6252,-0.6318,-0.6362,-0.6374,-0.6428,-0.6464,-0.6519,-0.6569,-0.6618,-0.6688,-0.6747,-0.6798,-0.6859,-0.689,-0.6899,-0.6905,-0.6904,-0.6912,-0.6868,-0.6854,-0.6896,-0.6896,-0.6896,-0.6896,-0.6896,-0.6896,-0.6196,-0.6258,-0.6283,-0.6366,-0.6403,-0.6464,-0.6494,-0.6536,-0.6576,-0.6653,-0.6702,-0.6734,-0.6784,-0.685,-0.6905,-0.6918,-0.694,-0.6944,-0.6959,-0.6918,-0.6914,-0.6911,-0.6898,-0.6948,-0.6948,-0.6999,-0.6999,-0.7]}]]